Simultaneous Nadir Overpasses (SNOs) Predictions

Prediction of SNOs between GOES-16 and AQUA Satellite Orbit:

Table of predicted SNOs for the next 14.0 days since TLE Epoch: 9/28/2019
Index Date Time (GOES-16) GOES-16 Lat,Lon AQUA Lat,Lon Distance(km) Time Diff (sec)
1 09/29/2019 18:23:04 -0.00, -75.19 0.76, -71.69 399.17 80
2 09/30/2019 06:44:19 0.00, -75.19 0.34, -76.84 187.47 80
3 10/02/2019 06:29:28 0.00, -75.19 -0.28, -73.88 148.88 80
4 10/02/2019 18:50:53 0.00, -75.20 -0.82, -79.08 441.11 80
5 10/04/2019 06:17:17 -0.00, -75.20 -0.90, -70.93 485.68 80
6 10/04/2019 18:38:42 0.00, -75.21 -0.20, -76.12 104.14 80
7 10/06/2019 18:29:11 0.00, -75.22 0.43, -73.17 233.44 80
8 10/07/2019 06:50:26 -0.00, -75.22 0.67, -78.32 352.65 80
9 10/09/2019 06:38:15 0.00, -75.25 0.04, -75.37 14.27 80
10 10/11/2019 06:23:24 0.00, -75.27 -0.59, -72.41 325.05 80
11 10/11/2019 18:44:49 -0.00, -75.29 -0.49, -77.61 264.14 80




NCC Satellite Simultaneous Nadir Overpasses (SNOs) Prediction Service
